Showing default

IPEX, 39471

Orbit data source: Space-Track

IPEX, 39471 is an American payload satellite in LEO that was launched on Fri, 06 Dec 2013 UTC via an ATLAS V 501 launch vehicle from the Air Force Western Test Range (AFWTR). Payload-class satellites include a variety of spacecraft equipped with specific instruments for various scientific and technological missions. These include communications satellites like Starlink; space stations such as the ISS; scientific satellites like the Hubble; Earth observation satellites from companies like Planet Labs, Umbra, and HawkEye 360; GPS; miniature CubeSats for education and research; and military/defense satellites.

Loading next visibility...
Identifier
39471, 2013-072K
Orbit
LEO
Country
Flag of USUS
Related business
Manufacturer
Cal Poly
Mission
Non-operational Civil Technology
Bus & Motor
CUBESAT 1U, Unknown motor
Mass
1 kg wet, 1 kg dry
Launch date (UTC)
2013-12-06 (13 years ago)
Launch vehicle
ATLAS V 501
Launch site
Air Force Western Test Range (AFWTR)
Object type
Payload
Rocket body
Debris
Shape & HBR
Box, 0.1 m
Radar Cross Section
0.015 m², Medium (>0.1 m² and < 1m²)

Expand to show TLE details & history
Last TLE update: 5 days ago

TLE from 5 days ago
0 IPEX
1 39471U 13072K   26155.17754872  .00006383  00000-0  32219-3 0  9997
2 39471 120.4641 249.0322 0162682 348.5494  11.1900 15.07934113113278
Epoch: 2026-06-04T04:15Z
TLE epoch observation values (Epoch: 2026-06-04T04:15:40.209Z)
Latitude
-0.00002°
Longitude
-67.51088°
Altitude
433.675 km
Speed
7.713 km/s
True Right ascension
16h 36m 07s
True Declination
0° 00' 00"
Sunlit
Object was in full shadow at epoch
Visualization orbit readout
Latitude
Unknown
Longitude
Unknown
Altitude
Unknown
Speed
Unknown
Apparent Right ascension
Unknown
Apparent Declination
Unknown
Sunlit
N/A
Visualization observer readout
Local Sidereal Time
12:48:30
Azimuth
Unknown
Elevation
Unknown
Doppler factor
Unknown
Orbital elements
Apogee altitude
654.364 km
Perigee altitude
429.215 km
Semi-major axis
6,919.927 km
Eccentricity
0.01627
Inclination
120.4641°
RAAN
249.0322°
Arg. of periapsis
348.5494°
True anomaly
11.55913°
Mean anomaly
11.19°
Eccentric anomaly
11.37382°
Mean motion
3.77043 °/min
Orbital period
95.48 mins
BSTAR
0.00032219
Loading maneuver chart data...
Computing Atmospheric mass density...
Loading historical data...
Loading historical data...
Loading historical data...
Loading historical data...
Loading historical data...
Loading historical data...
Loading historical data...

Documentation

Showing up to 5 results
|